Location: Berg
(48.4333°N, 13.9167°E)
Time: 08:26:43
(UTC+00:00)

NOSS 3-2 (C) - Pass Details

Date: 18 September 2020
Orbit: 795 x 1418 km, 63.4° (Epoch: 02 October)

Event Time Altitude Azimuth Distance (km) Brightness Sun altitude
Rises 18:44:06 0° 317° (NW) 3,881 7.8 -16.1°
Reaches altitude 10° 18:46:39 10° 321° (NW) 3,008 7.0 -16.4°
Maximum altitude 18:53:55 63° 43° (NE) 1,380 4.1 -17.6°
Enters shadow 18:58:45 27° 116° (ESE) 2,319 4.8 -18.3°
